[[{"header":{"parameterUnit":"m.s-1","parameterCategory":1,"la1":30.2991,"la2":30.254,"lo1":-89.0895,"lo2":-89.0444,"dy":0.0017,"dx":0.0017,"nx":28,"ny":28,"refTime":"2025-01-08T03:00:00:Z","depth":0,"parameterNumber":2,"parameterNumberName":"U-component_of_WINDS"},"data":[0,0,0,0,0,0,0,0,0,0,0,0,0,0,0,0,0,0,0,0,0,0,0,0,0,0,0,0,0,0,0,0,0,0,0,0,0,0,0,0,0,0,0,0,0,0,0,0,0,0,0,0,0,0,0,0,0,0,-0.5643,-0.5644,0,-0.5729,-0.573,-0.5731,-0.5698,-0.5696,-0.5694,-0.5693,-0.5783,-0.5787,-0.5791,0,0,0,0,0,0,0,0,0,0,0,0,0,-0.5455,-0.5459,-0.5643,-0.5644,-0.5646,-0.5729,-0.573,-0.5731,-0.5699,-0.5696,-0.5694,-0.5692,-0.5782,-0.5787,-0.5792,0,0,0,0,0,0,0,0,0,0,0,0,0,-0.5539,-0.546,-0.5643,-0.5639,-0.564,-0.5728,-0.573,-0.5731,-0.5699,-0.5696,-0.5693,-0.569,-0.578,-0.5786,-0.5793,-0.5891,0,0,-0.5812,-0.5815,0,0,0,0,0,0,0,0,-0.5534,-0.5546,-0.5639,-0.564,-0.564,-0.57,-0.5697,-0.5785,-0.57,-0.5677,-0.5692,-0.5689,-0.5758,-0.5766,-0.5789,-0.5895,-0.5899,-0.5813,-0.5816,-0.5819,-0.5821,0,0,0,0,0,0,0,-0.5528,-0.5542,-0.5677,-0.564,-0.5641,-0.5634,-0.5643,-0.5713,-0.5733,-0.5679,-0.5676,-0.5687,-0.5758,-0.5783,-0.579,-0.59,-0.5812,-0.5818,-0.5822,-0.5824,-0.6092,-0.6096,0,0,0,0,0,0,-0.5522,-0.5537,-0.5674,-0.568,-0.5579,-0.564,-0.565,-0.5684,-0.5732,-0.5737,-0.5689,-0.5685,-0.5773,-0.5783,-0.5794,-0.5913,-0.5819,-0.5825,-0.5829,-0.6089,-0.6093,-0.6097,0,0,0,0,0,0,-0.5518,-0.5534,-0.5671,-0.5608,-0.5625,-0.5646,-0.5685,-0.5687,-0.5712,-0.574,-0.5744,-0.5711,-0.5771,-0.5785,-0.5867,-0.5916,-0.5828,-0.5834,-0.6085,-0.609,-0.6095,-0.6152,0,0,0,0,0,0,-0.5512,-0.5533,-0.557,-0.5609,-0.5628,-0.5743,-0.5688,-0.5691,-0.5722,-0.5718,-0.5761,-0.5766,-0.577,-0.5858,-0.5873,-0.5923,-0.5839,-0.6081,-0.6088,-0.6093,-0.6146,-0.6158,-0.6169,0,0,0,0,0,-0.5506,-0.5583,-0.5572,-0.5589,-0.5675,-0.5745,-0.5756,-0.5759,-0.5726,-0.5764,-0.5782,-0.5764,-0.5907,-0.5866,-0.5884,-0.5936,-0.6078,-0.6086,-0.6093,-0.6141,-0.6156,-0.6169,0,0,0,0,0,0,-0.5551,-0.5588,-0.5576,-0.5669,-0.5704,-0.574,-0.5788,-0.5775,-0.5821,-0.5815,-0.5817,-0.5827,-0.5912,-0.5931,-0.5885,-0.6034,-0.5988,-0.5999,-0.6018,-0.6033,-0.6044,-0.6039,-0.5844,0,0,0,0,0,-0.5572,-0.5625,-0.5655,-0.5733,-0.5751,-0.5766,-0.5797,-0.5796,-0.5833,-0.5848,-0.5872,-0.591,-0.5963,-0.5999,-0.6049,-0.6147,-0.6157,-0.6192,-0.6203,-0.6213,-0.6223,-0.6278,-0.6294,-0.6121,-0.6121,-0.6121,0,0,-0.5615,-0.5642,-0.5676,-0.5743,-0.577,-0.5826,-0.5779,-0.5841,-0.5883,-0.5858,-0.5937,-0.5956,-0.5998,-0.6089,-0.613,-0.6108,-0.6273,-0.6222,-0.6229,-0.6235,-0.6287,-0.6303,-0.6318,-0.6126,-0.6125,-0.6124,0,0,-0.5724,-0.5748,-0.5817,-0.5845,-0.5886,-0.5895,-0.5912,-0.5949,-0.5961,-0.604,-0.6022,-0.6072,-0.6164,-0.6195,-0.6223,-0.6341,-0.6327,-0.6357,-0.6419,-0.6472,-0.6485,-0.6497,-0.6541,-0.6557,-0.6367,-0.6367,-0.6367,0,-0.5773,-0.5856,-0.5854,-0.5917,-0.5948,-0.5925,-0.5996,-0.6023,-0.6079,-0.6101,-0.6075,-0.6189,-0.6216,-0.6314,-0.6343,-0.6366,-0.6386,-0.6354,-0.6483,-0.6495,-0.6507,-0.6549,-0.6565,-0.6371,-0.6371,-0.637,-0.637,0,-0.5915,-0.5973,-0.6023,-0.6077,-0.6113,-0.6179,-0.6188,-0.6225,-0.622,-0.6232,-0.6314,-0.6344,-0.6401,-0.6424,-0.642,-0.6522,-0.6507,-0.6482,-0.6436,-0.6527,-0.6567,-0.6582,-0.6376,-0.6375,-0.6374,-0.6373,0,0,-0.6057,-0.6108,-0.6127,-0.6151,-0.6194,-0.6239,-0.6304,-0.6359,-0.6391,-0.643,-0.6486,-0.6563,-0.654,-0.6571,-0.657,-0.6616,-0.671,-0.6586,-0.6587,-0.661,-0.6826,-0.6847,-0.6865,-0.6699,-0.6702,-0.6705,-0.6823,0,-0.6171,-0.6284,-0.6284,-0.639,-0.6444,-0.6423,-0.648,-0.6513,-0.6525,-0.6574,-0.6588,-0.6643,-0.6608,-0.6627,-0.6671,-0.6689,-0.6754,-0.668,-0.6753,-0.6756,-0.6746,-0.6886,-0.6908,-0.7018,-0.6838,-0.6841,-0.6843,0,-0.6319,-0.6362,-0.6472,-0.6508,-0.653,-0.6581,-0.6631,-0.6677,-0.6714,-0.672,-0.6755,-0.6746,-0.6813,-0.6763,-0.6857,-0.6806,-0.6836,-0.6849,-0.6853,-0.6862,-0.6807,-0.6901,-0.7053,-0.7071,-0.6867,-0.6865,-0.6863,0,-0.6414,-0.6499,-0.6577,-0.6598,-0.664,-0.6677,-0.6696,-0.673,-0.6763,-0.6806,-0.6828,-0.6878,-0.6907,-0.6947,-0.6953,-0.6916,-0.7047,-0.6997,-0.7056,-0.7056,-0.7087,-0.7086,-0.7249,-0.7102,-0.7101,-0.7101,-0.7101,0,-0.6542,-0.6612,-0.662,-0.6668,-0.6745,-0.6743,-0.682,-0.6836,-0.6866,-0.6918,-0.6902,-0.6951,-0.6954,-0.7005,-0.7009,-0.7087,-0.7099,-0.7107,-0.7108,-0.711,-0.711,-0.7132,-0.7125,-0.7105,-0.7104,-0.7104,-0.7103,0,-0.6663,-0.6671,-0.6755,-0.6787,-0.6797,-0.6852,-0.6881,-0.6927,-0.6937,-0.7003,-0.7018,-0.7035,-0.7093,-0.7102,-0.717,-0.7173,-0.7267,-0.7258,-0.7255,-0.7254,-0.7313,-0.7308,-0.7498,-0.7524,-0.7358,-0.7359,-0.736,0,-0.6746,-0.6799,-0.6836,-0.6869,-0.689,-0.6943,-0.6976,-0.6976,-0.7012,-0.7057,-0.7098,-0.7154,-0.72,-0.7294,-0.7313,-0.7365,-0.736,-0.7423,-0.7368,-0.7368,-0.7364,-0.7361,-0.7367,-0.7434,-0.7436,-0.7438,-0.7439,0,-0.6893,-0.6894,-0.6941,-0.699,-0.703,-0.7069,-0.7105,-0.7133,-0.7138,-0.7178,-0.7237,-0.7272,-0.7341,-0.7398,-0.745,-0.7471,-0.7457,-0.7455,-0.7472,-0.7476,-0.7473,-0.7478,-0.7286,-0.7452,-0.7451,-0.745,-0.7449,-0.7448,-0.6999,-0.7045,-0.7078,-0.7132,-0.7159,-0.7193,-0.7239,-0.7254,-0.7303,-0.7359,-0.7355,-0.7421,-0.7456,-0.7524,-0.7548,-0.7599,-0.7579,-0.7603,-0.7609,-0.7616,-0.7623,-0.7462,-0.7608,-0.7608,-0.7608,-0.7607,-0.7607,0,-0.7147,-0.7167,-0.7216,-0.7267,-0.7309,-0.7289,-0.7329,-0.7366,-0.7423,-0.7457,-0.7501,-0.7569,-0.7624,-0.7646,-0.77,-0.7737,-0.7732,-0.7751,-0.775,-0.7755,-0.7637,-0.7618,-0.7754,-0.7754,-0.7754,-0.7754,-0.7754,-0.7754,-0.7229,-0.7306,-0.7311,-0.7401,-0.7421,-0.7484,-0.7509,-0.754,-0.7567,-0.7643,-0.7688,-0.7702,-0.7731,-0.7787,-0.7836,-0.7841,-0.7863,-0.7886,-0.7888,-0.7778,-0.7763,-0.7749,-0.7732,-0.789,-0.789,-0.8003,-0.8004,-0.8005]},{"header":{"parameterUnit":"m.s-1","parameterCategory":1,"la1":30.2991,"la2":30.254,"lo1":-89.0895,"lo2":-89.0444,"dy":0.0017,"dx":0.0017,"nx":28,"ny":28,"refTime":"2025-01-08T03:00:00:Z","depth":0,"parameterNumber":3,"parameterNumberName":"V-component_of_WINDS"},"data":[0,0,0,0,0,0,0,0,0,0,0,0,0,0,0,0,0,0,0,0,0,0,0,0,0,0,0,0,0,0,0,0,0,0,0,0,0,0,0,0,0,0,0,0,0,0,0,0,0,0,0,0,0,0,0,0,0,0,-6.5584,-6.5585,0,-6.5716,-6.5718,-6.5719,-6.5635,-6.5631,-6.5627,-6.5624,-6.5755,-6.5762,-6.5769,0,0,0,0,0,0,0,0,0,0,0,0,0,-6.5253,-6.526,-6.5583,-6.5585,-6.5587,-6.5716,-6.5718,-6.5719,-6.5636,-6.5631,-6.5626,-6.5622,-6.5753,-6.5761,-6.577,0,0,0,0,0,0,0,0,0,0,0,0,0,-6.5392,-6.5262,-6.5583,-6.5561,-6.556,-6.5715,-6.5718,-6.572,-6.5637,-6.5631,-6.5625,-6.562,-6.575,-6.576,-6.5771,-6.5955,0,0,-6.5804,-6.5808,0,0,0,0,0,0,0,0,-6.5384,-6.5404,-6.5562,-6.5563,-6.5562,-6.5653,-6.5649,-6.5798,-6.5638,-6.5608,-6.5624,-6.5617,-6.5726,-6.5738,-6.5776,-6.5961,-6.5966,-6.5805,-6.5811,-6.5816,-6.5819,0,0,0,0,0,0,0,-6.5375,-6.5398,-6.5636,-6.5565,-6.5565,-6.5542,-6.5556,-6.5677,-6.5698,-6.561,-6.5604,-6.5621,-6.5724,-6.5766,-6.5778,-6.5968,-6.5804,-6.5814,-6.5821,-6.5825,-6.6309,-6.6315,0,0,0,0,0,0,-6.5368,-6.5391,-6.5631,-6.564,-6.5457,-6.5553,-6.5568,-6.563,-6.5696,-6.5701,-6.5626,-6.5617,-6.575,-6.5766,-6.5782,-6.6001,-6.5816,-6.5826,-6.5832,-6.6302,-6.631,-6.6317,0,0,0,0,0,0,-6.5361,-6.539,-6.5626,-6.5514,-6.5542,-6.5565,-6.5635,-6.5635,-6.5676,-6.5709,-6.5711,-6.5665,-6.5746,-6.5767,-6.5912,-6.6004,-6.5831,-6.584,-6.6295,-6.6305,-6.6314,-6.644,0,0,0,0,0,0,-6.5352,-6.5388,-6.5459,-6.5516,-6.5549,-6.5756,-6.5641,-6.5642,-6.5696,-6.5685,-6.5745,-6.575,-6.5743,-6.5897,-6.5923,-6.6016,-6.5849,-6.6287,-6.6299,-6.6311,-6.6428,-6.6453,-6.6475,0,0,0,0,0,-6.534,-6.5489,-6.5463,-6.5493,-6.5638,-6.5761,-6.578,-6.577,-6.5704,-6.5775,-6.5795,-6.5748,-6.599,-6.5912,-6.5941,-6.6039,-6.6281,-6.6296,-6.631,-6.6418,-6.6448,-6.6474,0,0,0,0,0,0,-6.5441,-6.5496,-6.5468,-6.564,-6.5697,-6.5747,-6.5836,-6.5803,-6.5879,-6.5866,-6.5849,-6.5863,-6.6015,-6.6041,-6.5954,-6.6219,-6.6125,-6.6146,-6.6197,-6.6226,-6.6249,-6.6239,-6.5858,0,0,0,0,0,-6.5484,-6.5581,-6.5623,-6.577,-6.58,-6.5814,-6.5867,-6.5855,-6.5912,-6.5935,-6.5966,-6.6023,-6.6111,-6.617,-6.6253,-6.6431,-6.6442,-6.6512,-6.6535,-6.6554,-6.6573,-6.6667,-6.6699,-6.6365,-6.6365,-6.6364,0,0,-6.5572,-6.5614,-6.5676,-6.5791,-6.5834,-6.5933,-6.5834,-6.5944,-6.6017,-6.5951,-6.6091,-6.6115,-6.6177,-6.6339,-6.6412,-6.6365,-6.6667,-6.6573,-6.6588,-6.6596,-6.6685,-6.6717,-6.6745,-6.6375,-6.6373,-6.6371,0,0,-6.5784,-6.5826,-6.5953,-6.5998,-6.6064,-6.6072,-6.6102,-6.6158,-6.6172,-6.6312,-6.6265,-6.635,-6.6504,-6.6549,-6.6592,-6.6821,-6.678,-6.6848,-6.6969,-6.7062,-6.7088,-6.7111,-6.7192,-6.7221,-6.6866,-6.6866,-6.6866,0,-6.5885,-6.6035,-6.6022,-6.6136,-6.6187,-6.6134,-6.6261,-6.6305,-6.6394,-6.643,-6.6377,-6.6568,-6.6606,-6.6777,-6.6833,-6.687,-6.6903,-6.6841,-6.7086,-6.7109,-6.713,-6.7207,-6.7237,-6.6874,-6.6873,-6.6872,-6.6872,0,-6.6155,-6.6259,-6.6354,-6.6443,-6.6505,-6.6625,-6.6629,-6.6693,-6.6675,-6.6688,-6.683,-6.6873,-6.6964,-6.7003,-6.6987,-6.7173,-6.7142,-6.7088,-6.6993,-6.717,-6.7242,-6.7271,-6.6885,-6.6882,-6.688,-6.6878,0,0,-6.6435,-6.6516,-6.6551,-6.659,-6.6659,-6.6738,-6.6854,-6.6944,-6.6999,-6.7062,-6.7158,-6.7289,-6.7239,-6.7288,-6.7276,-6.7357,-6.7534,-6.7293,-6.7294,-6.7336,-6.774,-6.778,-6.7815,-6.7507,-6.7513,-6.7517,-6.7735,0,-6.6651,-6.6856,-6.6848,-6.7039,-6.7134,-6.7084,-6.7185,-6.7237,-6.7252,-6.7334,-6.7349,-6.7442,-6.737,-6.7399,-6.7477,-6.7496,-6.7615,-6.748,-6.7595,-6.76,-6.7582,-6.7852,-6.7896,-6.8099,-6.7763,-6.7768,-6.7771,0,-6.693,-6.7004,-6.7205,-6.7259,-6.7298,-6.739,-6.7471,-6.755,-6.7607,-6.7612,-6.7667,-6.7641,-6.7756,-6.7658,-6.7817,-6.7726,-6.7772,-6.7788,-6.7796,-6.7806,-6.7696,-6.787,-6.8164,-6.8194,-6.7815,-6.7812,-6.7808,0,-6.7114,-6.7263,-6.7402,-6.7438,-6.7504,-6.7569,-6.7599,-6.7651,-6.7705,-6.7775,-6.781,-6.7893,-6.7938,-6.8001,-6.7997,-6.7926,-6.8158,-6.806,-6.8164,-6.8164,-6.8215,-6.8212,-6.8521,-6.8246,-6.8245,-6.8245,-6.8244,0,-6.7356,-6.748,-6.7486,-6.7572,-6.7709,-6.7698,-6.7834,-6.7857,-6.7903,-6.7991,-6.7952,-6.8035,-6.8025,-6.8108,-6.8105,-6.8236,-6.8257,-6.8263,-6.8261,-6.8267,-6.8266,-6.8297,-6.8283,-6.8253,-6.8251,-6.8249,-6.8248,0,-6.7584,-6.7593,-6.7742,-6.7792,-6.7807,-6.7907,-6.7949,-6.8029,-6.804,-6.8152,-6.8177,-6.8194,-6.829,-6.8293,-6.8402,-6.84,-6.856,-6.8542,-6.8541,-6.8538,-6.8642,-6.8632,-6.8981,-6.9026,-6.8722,-6.8725,-6.8727,0,-6.7738,-6.7833,-6.7894,-6.7951,-6.7985,-6.8077,-6.8132,-6.8124,-6.8183,-6.8255,-6.8326,-6.8418,-6.8491,-6.8646,-6.8667,-6.875,-6.8733,-6.885,-6.8745,-6.8748,-6.8734,-6.8729,-6.8738,-6.887,-6.8874,-6.8876,-6.8878,0,-6.801,-6.8009,-6.8092,-6.8176,-6.8243,-6.8308,-6.8369,-6.8417,-6.8415,-6.8483,-6.8581,-6.8638,-6.8749,-6.8841,-6.8921,-6.895,-6.8914,-6.8911,-6.894,-6.8947,-6.8942,-6.8946,-6.8597,-6.8903,-6.8901,-6.8899,-6.8898,-6.8897,-6.8206,-6.8287,-6.8343,-6.8435,-6.848,-6.8537,-6.8615,-6.8636,-6.8718,-6.8809,-6.8799,-6.8907,-6.896,-6.9064,-6.91,-6.9183,-6.9143,-6.9184,-6.9195,-6.9205,-6.9216,-6.8929,-6.9198,-6.9197,-6.9197,-6.9196,-6.9195,0,-6.8475,-6.8508,-6.8593,-6.8679,-6.8752,-6.8713,-6.8777,-6.884,-6.8937,-6.899,-6.9063,-6.9174,-6.9262,-6.929,-6.9375,-6.9437,-6.9422,-6.9459,-6.9454,-6.9461,-6.9248,-6.9215,-6.9469,-6.9469,-6.9469,-6.9469,-6.9469,-6.9469,-6.8624,-6.876,-6.8766,-6.8923,-6.8954,-6.9062,-6.9102,-6.9153,-6.9196,-6.9323,-6.9396,-6.9414,-6.9457,-6.9544,-6.9623,-6.9628,-6.9661,-6.9705,-6.9704,-6.9504,-6.9477,-6.945,-6.9419,-6.9712,-6.9713,-6.991,-6.9912,-6.9914]}]]